GW4795 Weather Reports


time (UTC)temp
F
wind
direction
speed
knots
gust
knots
rain 1hr
in
rain 24hr
in
rain mn
in
humidity
%
barometer
mb
20260504000508 79 249 4.3 7.8 0.00 0.00 0.00 41 1010.7
20260504000024 79 262 4.3 7.8 0.00 0.00 0.00 42 1010.8
20260503235503 79 235 3.5 7.8 0.00 0.00 0.00 40 1010.8
20260503235011 79 248 5.2 8.7 0.00 0.00 0.00 41 1010.8
20260503234515 79 280 3.5 8.7 0.00 0.00 0.00 42 1010.8
20260503234008 80 231 1.7 9.6 0.00 0.00 0.00 41 1010.8
20260503233501 80 306 3.5 9.6 0.00 0.00 0.00 40 1010.8
20260503233012 80 302 2.6 7.8 0.00 0.00 0.00 42 1010.9
20260503232505 80 271 3.5 7.8 0.00 0.00 0.00 42 1011.0
20260503232005 81 333 4.3 7.8 0.00 0.00 0.00 41 1011.1
20260503231520 81 294 3.5 7.8 0.00 0.00 0.00 42 1011.2
20260503231007 81 273 2.6 7.8 0.00 0.00 0.00 43 1011.3
20260503230507 80 315 3.5 6.1 0.00 0.00 0.00 42 1011.4
20260503230018 80 257 1.7 6.1 0.00 0.00 0.00 44 1011.4
20260503225509 80 296 3.5 8.7 0.00 0.00 0.00 45 1011.6
20260503225007 80 252 3.5 8.7 0.00 0.00 0.00 44 1011.6
20260503224504 79 273 4.3 8.7 0.00 0.00 0.00 43 1011.6
20260503224003 80 239 3.5 7.8 0.00 0.00 0.00 41 1011.7
20260503223503 81 205 3.5 9.6 0.00 0.00 0.00 42 1011.7
20260503223008 81 244 4.3 9.6 0.00 0.00 0.00 43 1011.8
20260503222503 81 260 3.5 8.7 0.00 0.00 0.00 44 1011.8
20260503222005 81 286 3.5 7.0 0.00 0.00 0.00 45 1011.8
20260503221515 80 205 1.7 7.0 0.00 0.00 0.00 46 1011.9
20260503221007 80 209 3.5 7.0 0.00 0.00 0.00 43 1012.0
20260503220509 81 194 3.5 7.0 0.00 0.00 0.00 43 1012.0
20260503220021 80 311 2.6 7.0 0.00 0.00 0.00 45 1012.1
20260503215507 80 329 4.3 7.8 0.00 0.00 0.00 45 1012.2
20260503215009 80 278 4.3 7.8 0.00 0.00 0.00 43 1012.2
20260503214537 80 264 2.6 11.3 0.00 0.00 0.00 49 1012.3
20260503214009 80 225 5.2 11.3 0.00 0.00 0.00 44 1012.4
20260503213503 80 264 3.5 7.8 0.00 0.00 0.00 45 1012.4
20260503213007 80 298 3.5 7.8 0.00 0.00 0.00 44 1012.5
20260503212503 80 287 3.5 7.8 0.00 0.00 0.00 44 1012.5
20260503212006 80 304 1.7 7.0 0.00 0.00 0.00 47 1012.5
20260503211513 79 294 2.6 8.7 0.00 0.00 0.00 48 1012.5
20260503211006 79 279 4.3 9.6 0.00 0.00 0.00 45 1012.6
20260503210507 80 183 2.6 9.6 0.00 0.00 0.00 46 1012.6
20260503210016 80 311 2.6 8.7 0.00 0.00 0.00 46 1012.6
20260503205506 80 225 3.5 8.7 0.00 0.00 0.00 43 1012.8
20260503205009 80 285 2.6 7.0 0.00 0.00 0.00 48 1012.8
20260503204522 79 280 4.3 7.0 0.00 0.00 0.00 46 1012.8
20260503204007 79 237 3.5 7.0 0.00 0.00 0.00 49 1012.8
20260503203507 79 292 1.7 7.0 0.00 0.00 0.00 44 1012.8
20260503203023 79 288 2.6 7.8 0.00 0.00 0.00 48 1012.9
20260503202510 79 288 3.5 7.8 0.00 0.00 0.00 47 1012.9
20260503202004 78 254 3.5 7.0 0.00 0.00 0.00 48 1013.0
20260503201512 78 293 1.7 7.0 0.00 0.00 0.00 51 1013.0
20260503201007 78 288 4.3 7.0 0.00 0.00 0.00 47 1013.1
20260503200503 77 274 2.6 7.8 0.00 0.00 0.00 50 1013.1
20260503200034 77 280 2.6 7.8 0.00 0.00 0.00 52 1013.2
20260503195505 77 227 2.6 7.0 0.00 0.00 0.00 52 1013.3
20260503195010 76 279 3.5 7.0 0.00 0.00 0.00 50 1013.4
20260503194522 76 281 3.5 7.0 0.00 0.00 0.00 53 1013.5
20260503194009 76 230 3.5 6.1 0.00 0.00 0.00 51 1013.6
20260503193508 76 240 1.7 7.8 0.00 0.00 0.00 52 1013.6
20260503193032 76 315 3.5 8.7 0.00 0.00 0.00 56 1013.8
20260503192507 75 302 1.7 8.7 0.00 0.00 0.00 55 1013.8
20260503192011 74 292 2.6 8.7 0.00 0.00 0.00 53 1013.9
20260503191526 74 190 1.7 8.7 0.00 0.00 0.00 52 1013.9
20260503191004 74 257 4.3 8.7 0.00 0.00 0.00 56 1013.9
20260503190506 74 244 3.5 7.8 0.00 0.00 0.00 56 1014.0
20260503190014 74 275 4.3 7.8 0.00 0.00 0.00 55 1014.0
20260503185506 74 256 1.7 6.1 0.00 0.00 0.00 55 1014.0
20260503185008 74 254 0.9 7.0 0.00 0.00 0.00 56 1014.1
20260503184520 74 288 3.5 7.0 0.00 0.00 0.00 55 1014.2
20260503184007 74 275 3.5 7.0 0.00 0.00 0.00 56 1014.2
20260503183509 73 273 1.7 6.1 0.00 0.00 0.00 59 1014.3
20260503183026 72 254 1.7 6.1 0.00 0.00 0.00 58 1014.3
20260503182507 72 256 3.5 8.7 0.00 0.00 0.00 58 1014.4
20260503182015 72 320 2.6 8.7 0.00 0.00 0.00 59 1014.4
20260503181524 72 321 1.7 5.2 0.00 0.00 0.00 59 1014.4
20260503181007 72 232 1.7 7.0 0.00 0.00 0.00 59 1014.5
20260503180510 71 215 2.6 7.0 0.00 0.00 0.00 59 1014.6
20260503180043 71 246 2.6 7.0 0.00 0.00 0.00 61 1014.6
20260503175506 71 218 3.5 7.0 0.00 0.00 0.00 60 1014.7
20260503175003 71 301 2.6 4.3 0.00 0.00 0.00 61 1014.7
20260503174524 71 221 1.7 4.3 0.00 0.00 0.00 61 1014.7
20260503174007 71 216 0.9 5.2 0.00 0.00 0.00 62 1014.7
20260503173509 70 282 2.6 6.1 0.00 0.00 0.00 63 1014.7
20260503173034 70 321 2.6 6.1 0.00 0.00 0.00 62 1014.8
20260503172509 69 306 2.6 7.0 0.00 0.00 0.00 63 1014.9
20260503172007 69 299 3.5 7.0 0.00 0.00 0.00 62 1014.9
20260503171524 69 238 1.7 4.3 0.00 0.00 0.00 64 1014.9
20260503171006 68 336 0.9 5.2 0.00 0.00 0.00 64 1014.9
20260503170506 68 267 0.9 5.2 0.00 0.00 0.00 64 1014.9
20260503151002 53 241 0.9 1.7 0.00 0.00 0.00 92 1015.3
20260503150507 53 286 0.0 1.7 0.00 0.00 0.00 92 1015.3
20260503131007 48 17 0.0 0.9 0.00 0.00 0.00 89 1014.9
20260503130507 48 17 0.0 1.7 0.00 0.00 0.00 89 1014.9
20260503110510 50 352 0.0 1.7 0.00 0.00 0.00 87 1015.2
20260503090504 53 360 0.0 1.7 0.00 0.00 0.00 84 1015.4
20260503081537 54 13 0.0 0.9 0.00 0.00 0.00 82 1015.5
20260503081002 54 16 0.0 1.7 0.00 0.00 0.00 82 1015.4
20260503080502 54 16 0.0 1.7 0.00 0.00 0.00 82 1015.4
20260503072505 55 9 0.0 1.7 0.00 0.00 0.00 79 1015.2
20260503072002 56 9 0.0 1.7 0.00 0.00 0.00 78 1015.1
20260503071505 56 22 0.0 1.7 0.00 0.00 0.00 78 1015.2
20260503071003 56 23 0.0 1.7 0.00 0.00 0.00 77 1015.2
20260503070502 56 311 0.0 1.7 0.00 0.00 0.00 77 1015.1
20260503055003 59 295 0.0 1.7 0.00 0.00 0.00 73 1015.0
20260503054512 60 295 0.0 1.7 0.00 0.00 0.00 72 1015.0
20260503054004 60 295 0.0 0.9 0.00 0.00 0.00 71 1015.0
20260503053504 60 295 0.0 0.9 0.00 0.00 0.00 70 1015.0
20260503053008 60 295 0.0 0.9 0.00 0.00 0.00 69 1015.0
20260503052503 61 295 0.0 1.7 0.00 0.00 0.00 68 1015.1
20260503052004 61 295 0.0 1.7 0.00 0.00 0.00 67 1015.0
20260503051515 61 295 0.0 1.7 0.00 0.00 0.00 66 1015.0
20260503051002 61 295 0.0 1.7 0.00 0.00 0.00 65 1015.0
20260503050503 62 289 0.0 1.7 0.00 0.00 0.00 64 1015.0
20260503050009 62 315 0.0 0.0 0.00 0.00 0.00 63 1014.9
20260503045506 62 315 0.0 1.7 0.00 0.00 0.00 63 1014.8
20260503045004 62 315 0.0 1.7 0.00 0.00 0.00 63 1014.7
20260503044509 63 315 0.0 1.7 0.00 0.00 0.00 62 1014.7
20260503044003 63 315 0.0 1.7 0.00 0.00 0.00 62 1014.6
20260503043503 63 303 0.0 0.0 0.00 0.00 0.00 61 1014.6
20260503043006 63 303 0.0 0.0 0.00 0.00 0.00 61 1014.5
20260503042504 64 303 0.0 1.7 0.00 0.00 0.00 61 1014.5
20260503042003 64 303 0.0 1.7 0.00 0.00 0.00 60 1014.4
20260503041508 64 303 0.0 1.7 0.00 0.00 0.00 60 1014.4
20260503041006 64 304 0.0 1.7 0.00 0.00 0.00 59 1014.3
20260503040505 64 295 0.9 1.7 0.00 0.00 0.00 59 1014.3
20260503040008 65 325 0.0 1.7 0.00 0.00 0.00 58 1014.1
20260503035504 65 332 0.9 1.7 0.00 0.00 0.00 58 1014.1
20260503035005 65 19 0.9 1.7 0.00 0.00 0.00 58 1014.0
20260503034512 65 290 0.0 1.7 0.00 0.00 0.00 57 1013.9
20260503034003 66 326 0.0 1.7 0.00 0.00 0.00 57 1013.9
20260503033505 66 298 0.0 3.5 0.00 0.00 0.00 56 1013.9
20260503033022 66 304 0.0 4.3 0.00 0.00 0.00 56 1013.9
20260503032503 66 243 1.7 4.3 0.00 0.00 0.00 55 1013.8
20260503032002 67 274 0.9 4.3 0.00 0.00 0.00 55 1013.8
20260503031513 67 244 1.7 4.3 0.00 0.00 0.00 55 1013.8
20260503031003 67 257 0.9 3.5 0.00 0.00 0.00 55 1013.7
20260503030502 68 267 1.7 5.2 0.00 0.00 0.00 54 1013.7
20260503030022 68 246 0.9 5.2 0.00 0.00 0.00 54 1013.7
20260503025504 68 231 0.9 3.5 0.00 0.00 0.00 54 1013.7
20260503025003 68 265 0.9 4.3 0.00 0.00 0.00 54 1013.6
20260503024510 69 275 1.7 5.2 0.00 0.00 0.00 53 1013.6
20260503024004 69 293 1.7 5.2 0.00 0.00 0.00 53 1013.6
20260503023504 69 284 0.9 4.3 0.00 0.00 0.00 52 1013.5
20260503023014 69 288 1.7 8.7 0.00 0.00 0.00 52 1013.5
20260503022504 69 295 3.5 8.7 0.00 0.00 0.00 52 1013.5
20260503022005 70 267 2.6 6.1 0.00 0.00 0.00 53 1013.4
20260503021512 70 261 2.6 8.7 0.00 0.00 0.00 53 1013.4
20260503021006 70 266 4.3 8.7 0.00 0.00 0.00 53 1013.4
20260503020503 70 194 4.3 6.1 0.00 0.00 0.00 53 1013.4
20260503020016 70 290 0.9 5.2 0.00 0.00 0.00 54 1013.4
20260503015504 70 291 2.6 6.1 0.00 0.00 0.00 55 1013.4
20260503015007 70 290 2.6 6.1 0.00 0.00 0.00 54 1013.4
20260503014512 70 277 2.6 7.0 0.00 0.00 0.00 55 1013.5
20260503014006 70 281 3.5 8.7 0.00 0.00 0.00 55 1013.6
20260503013506 70 209 1.7 8.7 0.00 0.00 0.00 54 1013.6
20260503013010 70 269 2.6 7.8 0.00 0.00 0.00 55 1013.6
20260503012506 71 267 1.7 6.1 0.00 0.00 0.00 55 1013.7
20260503012006 71 277 3.5 7.0 0.00 0.00 0.00 55 1013.6
20260503011513 71 292 2.6 10.4 0.00 0.00 0.00 55 1013.7
20260503011008 71 238 3.5 10.4 0.00 0.00 0.00 54 1013.7
20260503010509 71 265 2.6 7.8 0.00 0.00 0.00 54 1013.7
20260503010019 71 322 3.5 8.7 0.00 0.00 0.00 54 1013.7
20260503005506 71 275 4.3 8.7 0.00 0.00 0.00 54 1013.7
20260503005007 71 299 4.3 8.7 0.00 0.00 0.00 55 1013.7
20260503004519 71 236 3.5 8.7 0.00 0.00 0.00 54 1013.8
20260503004006 72 272 2.6 8.7 0.00 0.00 0.00 53 1013.7
20260503003505 72 267 1.7 9.6 0.00 0.00 0.00 53 1013.7
20260503003014 72 268 5.2 12.2 0.00 0.00 0.00 52 1013.8
20260503002506 72 322 1.7 12.2 0.00 0.00 0.00 53 1013.8
20260503002005 72 286 4.3 12.2 0.00 0.00 0.00 53 1013.8
20260503001517 73 215 3.5 8.7 0.00 0.00 0.00 53 1013.8
20260503001006 73 277 2.6 8.7 0.00 0.00 0.00 54 1013.8